Beaufort, NC

6:17 AM EDT on October 14, 2019 (GMT -0400)
Smith

Weather History for KMRH - June, 2019

Change the Weather History Date:

Thursday, June 6, 2019

  Actual Average Record
Temperature  
Mean Temperature 81 °F -  
Max Temperature 86 °F 82 °F 92 °F (1955)
Min Temperature 78 °F 65 °F 55 °F (1976)
Cooling Degree Days 16    
Growing Degree Days 31 (Base 50)    
Moisture  
Dew Point 74 °F    
Average Humidity 80    
Maximum Humidity 87    
Minimum Humidity 72    
Precipitation  
Precipitation 0.01 in - - ()
Sea Level Pressure  
Sea Level Pressure 29.90 in    
Wind  
Wind Speed 17 mph (SW)    
Max Wind Speed 22 mph    
Max Gust Speed 28 mph    
Visibility 10 miles    
Events Rain    
Averages and records for this station are not official NWS values.
T = Trace of Precipitation, MM = Missing Value Source: NWS Daily Summary

Daily Weather History Graph

Daily Weather History Graph

Search for Another Location

Airport or City:

Astronomy

Jun. 06, 2019 Rise Set
Actual Time 5:53 AM EDT 8:17 PM EDT
Civil Twilight 5:24 AM EDT 8:46 PM EDT
Nautical Twilight 4:48 AM EDT 9:22 PM EDT
Astronomical Twilight 4:08 AM EDT 10:02 PM EDT
Moon 8:58 AM EDT (6/6) 11:35 PM EDT (6/6)
Length of Visible Light 15h 22m
Length of Day
14h 23m
Waxing Crescent, 13% of the Moon is Illuminated
Jun 6
Waxing Crescent
Jun 10
First Quarter
Jun 17
Full
Jun 25
Last Quarter
Jul 2
New

Hourly Weather History & Observations

Time (EDT) Temp. Heat Index Dew Point Humidity Pressure Visibility Wind Dir Wind Speed Gust Speed Precip Events Conditions
12:58 AM 79.0 °F - 73.0 °F 82% 29.96 in 10.0 mi SSW 17.3 mph - N/A   Mostly Cloudy
1:13 AM 78.1 °F - 73.0 °F 84% 29.95 in 7.0 mi SSW 17.3 mph - 0.00 in Rain Light Rain
1:58 AM 78.1 °F - 73.0 °F 84% 29.93 in 10.0 mi SSW 17.3 mph - 0.00 in   Mostly Cloudy
2:14 AM 79.0 °F - 73.0 °F 82% 29.92 in 10.0 mi SSW 18.4 mph 24.2 mph N/A   Overcast
2:36 AM 79.0 °F - 73.0 °F 82% 29.92 in 10.0 mi SW 19.6 mph - 0.00 in   Mostly Cloudy
2:58 AM 79.0 °F - 73.9 °F 84% 29.91 in 10.0 mi SW 18.4 mph - 0.00 in   Scattered Clouds
3:09 AM 79.0 °F - 73.9 °F 84% 29.91 in 10.0 mi SSW 15.0 mph - N/A   Mostly Cloudy
3:18 AM 79.0 °F - 73.9 °F 84% 29.91 in 9.0 mi SSW 13.8 mph - N/A   Scattered Clouds
3:58 AM 78.1 °F - 73.9 °F 87% 29.90 in 10.0 mi SW 17.3 mph - N/A   Scattered Clouds
4:58 AM 78.1 °F - 73.9 °F 87% 29.89 in 9.0 mi SW 12.7 mph - N/A   Clear
5:58 AM 78.1 °F - 72.0 °F 81% 29.91 in 10.0 mi SW 10.4 mph - N/A   Clear
6:58 AM 78.1 °F - 72.0 °F 81% 29.92 in 10.0 mi WSW 12.7 mph - N/A   Clear
7:58 AM 80.1 °F 84.2 °F 73.0 °F 79% 29.91 in 10.0 mi SW 13.8 mph - N/A   Clear
8:58 AM 81.0 °F 85.8 °F 73.0 °F 77% 29.91 in 10.0 mi WSW 13.8 mph - N/A   Clear
9:58 AM 82.0 °F 87.4 °F 73.0 °F 74% 29.91 in 10.0 mi WSW 16.1 mph 26.5 mph N/A   Clear
10:58 AM 82.9 °F 88.8 °F 73.0 °F 72% 29.90 in 10.0 mi SW 17.3 mph 25.3 mph N/A   Clear
11:58 AM 84.0 °F 91.9 °F 75.0 °F 74% 29.90 in 10.0 mi SW 21.9 mph 27.6 mph N/A   Partly Cloudy
12:58 PM 84.9 °F 93.3 °F 75.0 °F 72% 29.88 in 10.0 mi SSW 18.4 mph - N/A   Clear
1:58 PM 84.9 °F 93.3 °F 75.0 °F 72% 29.88 in 10.0 mi SW 19.6 mph - 0.00 in Rain Light Rain
2:58 PM 84.0 °F 91.2 °F 73.9 °F 72% 29.87 in 10.0 mi SSW 20.7 mph 26.5 mph 0.00 in Rain Light Rain
3:58 PM 82.9 °F 89.4 °F 73.9 °F 74% 29.86 in 10.0 mi SSW 16.1 mph - 0.00 in Rain Light Rain
4:58 PM 82.0 °F 87.9 °F 73.9 °F 76% 29.86 in 10.0 mi SSW 18.4 mph 26.5 mph 0.00 in Rain Light Rain
5:58 PM 81.0 °F 86.7 °F 75.0 °F 82% 29.86 in 10.0 mi SW 18.4 mph 25.3 mph 0.00 in Rain Light Rain
6:58 PM 81.0 °F 86.7 °F 75.0 °F 82% 29.86 in 10.0 mi SW 19.6 mph - 0.01 in Rain Light Rain
7:58 PM 80.1 °F 84.2 °F 73.0 °F 79% 29.87 in 10.0 mi SW 16.1 mph - 0.00 in Rain Light Rain
8:58 PM 79.0 °F - 73.9 °F 84% 29.88 in 10.0 mi SW 13.8 mph 24.2 mph 0.00 in Rain Light Rain
9:58 PM 79.0 °F - 73.9 °F 84% 29.89 in 10.0 mi WSW 16.1 mph - 0.00 in Rain Light Rain
10:58 PM 79.0 °F - 72.0 °F 79% 29.89 in 10.0 mi WSW 17.3 mph - 0.00 in Rain Light Rain
11:58 PM 78.1 °F - 73.0 °F 84% 29.88 in 10.0 mi WSW 10.4 mph - 0.00 in Rain Light Rain